Tracking 30922 objects as of 2-Jul-2025
HD Live streaming from Space Station
objects crossing your sky now

STARLINK-31906

Track STARLINK-31906 now!
10-day predictions
STARLINK-31906 is classified as:


NORAD ID: 59842
Int'l Code: 2024-097H
Perigee: 489.2 km
Apogee: 491.2 km
Inclination: 43.0 °
Period: 94.3 minutes
Semi major axis: 6861 km
RCS: Unknown
Launch date: May 23, 2024
Source: United States (US)
Launch site: AIR FORCE EASTERN TEST RANGE (AFETR)
Your satellite tracking list
TET-1
Track 1 satellite(s)




NASA's NSSDC Master Catalog

Two Line Element Set (TLE):
1 59842U 24097H   25182.46327818 -.00000438  00000-0 -63816-5 0  9993
2 59842  42.9979 253.2709 0001472 245.6723 114.3975 15.27572369 63490
Source of the keplerian elements: AFSPC